Showing default

LUOJIA-1 01, 43485

Orbit data source: Space-Track

LUOJIA-1 01, 43485 is a payload satellite owned by Wuhan daxue (CN) in SSO that was launched on Sat, 02 Jun 2018 UTC via a CHANG ZHENG 2D launch vehicle from the Jiuquan Satellite Launch Center, China (JSC). Payload-class satellites include a variety of spacecraft equipped with specific instruments for various scientific and technological missions. These include communications satellites like Starlink; space stations such as the ISS; scientific satellites like the Hubble; Earth observation satellites from companies like Planet Labs, Umbra, and HawkEye 360; GPS; miniature CubeSats for education and research; and military/defense satellites.

Loading next visibility...
Identifier
43485, 2018-048B
Orbit
SSO
Last TLE update
7 hours ago
Origin
Manufacturer
Wuhan daxue
Mission
Operational Amateur Imaging
Bus & Motor
CUBESAT 6U, Unknown motor
Mass
10 kg wet, 10 kg dry
Launch date (UTC)
2018-06-02 (7 years ago)
Launch vehicle
CHANG ZHENG 2D
Launch site
Jiuquan Satellite Launch Center, China (JSC)
Object type
Payload
Rocket body
Debris
Shape & HBR
Box + 1 Pan, 0.5 m
Radar Cross Section
0.092 m², Medium (>0.1 m² and < 1m²)

Expand to show TLE details & history

TLE from 7 hours ago
0 LUOJIA-1 01
1 43485U 18048B   25183.57805191  .00001529  00000-0  18421-3 0  9996
2 43485  97.8428 262.2365 0009361 180.7148 179.4055 14.85291118382282
Epoch: 2025-07-02T13:52Z
TLE epoch observation values (Epoch: 2025-07-02T13:52:23.685Z)
Latitude
-0.00001°
Longitude
133.28067°
Altitude
622.248 km
Speed
7.544 km/s
True Right ascension
17h 28m 56s
True Declination
0° 00' 00"
Sunlit
Object was in full shadow at epoch
Visualization orbit readout
Latitude
30.98647°
Longitude
-41.70748°
Altitude
611.063 km
Speed
7.56 km/s
Apparent Right ascension
02h 12m 57s
Apparent Declination
-6° 40' 42"
Sunlit
Object is in daylight
Visualization observer readout
Local Sidereal Time
08:44:37
Azimuth
269.919° W
Elevation
-10.345°
Doppler factor
1
Orbital elements
Apogee altitude
616.245 km
Perigee altitude
603.162 km
Semi-major axis
6,987.84 km
Eccentricity
0.00094
Inclination
97.8428°
RAAN
262.2365°
Arg. of periapsis
180.7148°
True anomaly
Unknown
Mean anomaly
179.4055°
Eccentric anomaly
Unknown
Mean motion
3.7156 °/min
Orbital period
96.89 mins
BSTAR
0.00018421
Loading maneuver chart data...
Loading SW <> Apogee altitude chart data...
Loading historical data...
Loading historical data...
Loading historical data...
Loading historical data...
Loading historical data...
Loading historical data...
Loading historical data...
Other satellites on launch #48 in the year 2018 (2018-06-02 UTC)

LUOJIA-1 01 Visibility forecast

Observer location: undefined°, undefined°

Span
Click to sort rows by Start time (UTC) header in descending order
Start Az.
Max El. time (UTC)
Max El. Az.
Max El.
End time (UTC)
End Az.
7 mins2025-07-03 04:33:30.036Z128.737° SE2025-07-03 04:36:30.036Z82.724° E25.823°2025-07-03 04:40:30.036Z10.961° NNE
4 mins2025-07-03 06:11:30.036Z237.276° WSW2025-07-03 06:12:30.036Z256.237° W20.549°2025-07-03 06:15:30.036Z309.284° NW
6 mins2025-07-03 17:56:30.036Z23.636° NE2025-07-03 17:59:30.036Z116.521° SE41.567°2025-07-03 18:02:30.036Z179.964° S
|